Year,Month,Day,Hour,Minute,Value (Times are PST for insolation in W/m^2)
2017,05,29,00,00,0.00
2017,05,29,00,01,0.00
2017,05,29,00,02,0.00
2017,05,29,00,03,0.00
2017,05,29,00,04,0.00
2017,05,29,00,05,0.00
2017,05,29,00,06,0.00
2017,05,29,00,07,0.00
2017,05,29,00,08,0.00
2017,05,29,00,09,0.00
2017,05,29,00,10,0.00
2017,05,29,00,11,0.00
2017,05,29,00,12,0.00
2017,05,29,00,13,0.00
2017,05,29,00,14,0.00
2017,05,29,00,15,0.00
2017,05,29,00,16,0.00
2017,05,29,00,17,0.00
2017,05,29,00,18,0.00
2017,05,29,00,19,0.00
2017,05,29,00,20,0.00
2017,05,29,00,21,0.00
2017,05,29,00,22,0.00
2017,05,29,00,23,0.00
2017,05,29,00,24,0.00
2017,05,29,00,25,0.00
2017,05,29,00,26,0.00
2017,05,29,00,27,0.00
2017,05,29,00,28,0.00
2017,05,29,00,29,0.00
2017,05,29,00,30,0.00
2017,05,29,00,31,0.00
2017,05,29,00,32,0.00
2017,05,29,00,33,0.00
2017,05,29,00,34,0.00
2017,05,29,00,35,0.00
2017,05,29,00,36,0.00
2017,05,29,00,37,0.00
2017,05,29,00,38,0.00
2017,05,29,00,39,0.00
2017,05,29,00,40,0.00
2017,05,29,00,41,0.00
2017,05,29,00,42,0.00
2017,05,29,00,43,0.00
2017,05,29,00,44,0.00
2017,05,29,00,45,0.00
2017,05,29,00,46,0.00
2017,05,29,00,47,0.00
2017,05,29,00,48,0.00
2017,05,29,00,49,0.00
2017,05,29,00,50,0.00
2017,05,29,00,51,0.00
2017,05,29,00,52,0.00
2017,05,29,00,53,0.00
2017,05,29,00,54,0.00
2017,05,29,00,55,0.00
2017,05,29,00,56,0.00
2017,05,29,00,57,0.00
2017,05,29,00,58,0.00
2017,05,29,00,59,0.00
2017,05,29,01,00,0.00
2017,05,29,01,01,0.00
2017,05,29,01,02,0.00
2017,05,29,01,03,0.00
2017,05,29,01,04,0.00
2017,05,29,01,05,0.00
2017,05,29,01,06,0.00
2017,05,29,01,07,0.00
2017,05,29,01,08,0.00
2017,05,29,01,09,0.00
2017,05,29,01,10,0.00
2017,05,29,01,11,0.00
2017,05,29,01,12,0.00
2017,05,29,01,13,0.00
2017,05,29,01,14,0.00
2017,05,29,01,15,0.00
2017,05,29,01,16,0.00
2017,05,29,01,17,0.00
2017,05,29,01,18,0.00
2017,05,29,01,19,0.00
2017,05,29,01,20,0.00
2017,05,29,01,21,0.00
2017,05,29,01,22,0.00
2017,05,29,01,23,0.00
2017,05,29,01,24,0.00
2017,05,29,01,25,0.00
2017,05,29,01,26,0.00
2017,05,29,01,27,0.00
2017,05,29,01,28,0.00
2017,05,29,01,29,0.00
2017,05,29,01,30,0.00
2017,05,29,01,31,0.00
2017,05,29,01,32,0.00
2017,05,29,01,33,0.00
2017,05,29,01,34,0.00
2017,05,29,01,35,0.00
2017,05,29,01,36,0.00
2017,05,29,01,37,0.00
2017,05,29,01,38,0.00
2017,05,29,01,39,0.00
2017,05,29,01,40,0.00
2017,05,29,01,41,0.00
2017,05,29,01,42,0.00
2017,05,29,01,43,0.00
2017,05,29,01,44,0.00
2017,05,29,01,45,0.00
2017,05,29,01,46,0.00
2017,05,29,01,47,0.00
2017,05,29,01,48,0.00
2017,05,29,01,49,0.00
2017,05,29,01,50,0.00
2017,05,29,01,51,0.00
2017,05,29,01,52,0.00
2017,05,29,01,53,0.00
2017,05,29,01,54,0.00
2017,05,29,01,55,0.00
2017,05,29,01,56,0.00
2017,05,29,01,57,0.00
2017,05,29,01,58,0.00
2017,05,29,01,59,0.00
2017,05,29,02,00,0.00
2017,05,29,02,01,0.00
2017,05,29,02,02,0.00
2017,05,29,02,03,0.00
2017,05,29,02,04,0.00
2017,05,29,02,05,0.00
2017,05,29,02,06,0.00
2017,05,29,02,07,0.00
2017,05,29,02,08,0.00
2017,05,29,02,09,0.00
2017,05,29,02,10,0.00
2017,05,29,02,11,0.00
2017,05,29,02,12,0.00
2017,05,29,02,13,0.00
2017,05,29,02,14,0.00
2017,05,29,02,15,0.00
2017,05,29,02,16,0.00
2017,05,29,02,17,0.00
2017,05,29,02,18,0.00
2017,05,29,02,19,0.00
2017,05,29,02,20,0.00
2017,05,29,02,21,0.00
2017,05,29,02,22,0.00
2017,05,29,02,23,0.00
2017,05,29,02,24,0.00
2017,05,29,02,25,0.00
2017,05,29,02,26,0.00
2017,05,29,02,27,0.00
2017,05,29,02,28,0.00
2017,05,29,02,29,0.00
2017,05,29,02,30,0.00
2017,05,29,02,31,0.00
2017,05,29,02,32,0.00
2017,05,29,02,33,0.00
2017,05,29,02,34,0.00
2017,05,29,02,35,0.00
2017,05,29,02,36,0.00
2017,05,29,02,37,0.00
2017,05,29,02,38,0.00
2017,05,29,02,39,0.00
2017,05,29,02,40,0.00
2017,05,29,02,41,0.00
2017,05,29,02,42,0.00
2017,05,29,02,43,0.00
2017,05,29,02,44,0.00
2017,05,29,02,45,0.00
2017,05,29,02,46,0.00
2017,05,29,02,47,0.00
2017,05,29,02,48,0.00
2017,05,29,02,49,0.00
2017,05,29,02,50,0.00
2017,05,29,02,51,0.00
2017,05,29,02,52,0.00
2017,05,29,02,53,0.00
2017,05,29,02,54,0.00
2017,05,29,02,55,0.00
2017,05,29,02,56,0.00
2017,05,29,02,57,0.00
2017,05,29,02,58,0.00
2017,05,29,02,59,0.00
2017,05,29,03,00,0.00
2017,05,29,03,01,0.00
2017,05,29,03,02,0.00
2017,05,29,03,03,0.00
2017,05,29,03,04,0.00
2017,05,29,03,05,0.00
2017,05,29,03,06,0.00
2017,05,29,03,07,0.00
2017,05,29,03,08,0.00
2017,05,29,03,09,0.00
2017,05,29,03,10,0.00
2017,05,29,03,11,0.00
2017,05,29,03,12,0.00
2017,05,29,03,13,0.00
2017,05,29,03,14,0.00
2017,05,29,03,15,0.00
2017,05,29,03,16,0.00
2017,05,29,03,17,0.00
2017,05,29,03,18,0.00
2017,05,29,03,19,0.00
2017,05,29,03,20,0.00
2017,05,29,03,21,0.00
2017,05,29,03,22,0.00
2017,05,29,03,23,0.00
2017,05,29,03,24,0.00
2017,05,29,03,25,0.00
2017,05,29,03,26,0.00
2017,05,29,03,27,0.00
2017,05,29,03,28,0.00
2017,05,29,03,29,0.00
2017,05,29,03,30,0.00
2017,05,29,03,31,0.00
2017,05,29,03,32,0.00
2017,05,29,03,33,0.00
2017,05,29,03,34,0.00
2017,05,29,03,35,0.00
2017,05,29,03,36,0.00
2017,05,29,03,37,0.00
2017,05,29,03,38,0.00
2017,05,29,03,39,0.00
2017,05,29,03,40,0.00
2017,05,29,03,41,0.00
2017,05,29,03,42,0.00
2017,05,29,03,43,0.00
2017,05,29,03,44,0.00
2017,05,29,03,45,0.00
2017,05,29,03,46,0.00
2017,05,29,03,47,0.00
2017,05,29,03,48,0.00
2017,05,29,03,49,0.00
2017,05,29,03,50,0.00
2017,05,29,03,51,0.00
2017,05,29,03,52,0.00
2017,05,29,03,53,0.00
2017,05,29,03,54,0.00
2017,05,29,03,55,0.00
2017,05,29,03,56,0.00
2017,05,29,03,57,0.00
2017,05,29,03,58,0.00
2017,05,29,03,59,0.00
2017,05,29,04,00,0.00
2017,05,29,04,01,0.00
2017,05,29,04,02,0.00
2017,05,29,04,03,0.00
2017,05,29,04,04,0.00
2017,05,29,04,05,0.00
2017,05,29,04,06,0.00
2017,05,29,04,07,0.00
2017,05,29,04,08,0.00
2017,05,29,04,09,0.00
2017,05,29,04,10,0.00
2017,05,29,04,11,0.00
2017,05,29,04,12,0.00
2017,05,29,04,13,0.00
2017,05,29,04,14,0.00
2017,05,29,04,15,0.00
2017,05,29,04,16,0.00
2017,05,29,04,17,0.00
2017,05,29,04,18,0.00
2017,05,29,04,19,0.00
2017,05,29,04,20,0.00
2017,05,29,04,21,0.00
2017,05,29,04,22,0.00
2017,05,29,04,23,0.00
2017,05,29,04,24,0.00
2017,05,29,04,25,0.00
2017,05,29,04,26,0.00
2017,05,29,04,27,0.00
2017,05,29,04,28,0.00
2017,05,29,04,29,0.00
2017,05,29,04,30,0.00
2017,05,29,04,31,0.00
2017,05,29,04,32,0.00
2017,05,29,04,33,0.00
2017,05,29,04,34,0.00
2017,05,29,04,35,0.00
2017,05,29,04,36,0.00
2017,05,29,04,37,0.00
2017,05,29,04,38,0.00
2017,05,29,04,39,0.00
2017,05,29,04,40,0.00
2017,05,29,04,41,0.00
2017,05,29,04,42,0.00
2017,05,29,04,43,0.00
2017,05,29,04,44,0.00
2017,05,29,04,45,0.00
2017,05,29,04,46,0.00
2017,05,29,04,47,0.00
2017,05,29,04,48,0.00
2017,05,29,04,49,0.00
2017,05,29,04,50,0.00
2017,05,29,04,51,0.00
2017,05,29,04,52,0.00
2017,05,29,04,53,0.00
2017,05,29,04,54,0.00
2017,05,29,04,55,0.00
2017,05,29,04,56,0.00
2017,05,29,04,57,0.00
2017,05,29,04,58,0.00
2017,05,29,04,59,0.00
2017,05,29,05,00,0.00
2017,05,29,05,01,0.00
2017,05,29,05,02,0.00
2017,05,29,05,03,0.00
2017,05,29,05,04,0.00
2017,05,29,05,05,0.00
2017,05,29,05,06,0.00
2017,05,29,05,07,0.00
2017,05,29,05,08,0.00
2017,05,29,05,09,0.00
2017,05,29,05,10,0.00
2017,05,29,05,11,0.00
2017,05,29,05,12,0.00
2017,05,29,05,13,0.00
2017,05,29,05,14,0.00
2017,05,29,05,15,0.00
2017,05,29,05,16,0.00
2017,05,29,05,17,0.00
2017,05,29,05,18,0.00
2017,05,29,05,19,1.80
2017,05,29,05,20,5.00
2017,05,29,05,21,5.00
2017,05,29,05,22,5.00
2017,05,29,05,23,5.00
2017,05,29,05,24,5.40
2017,05,29,05,25,7.00
2017,05,29,05,26,7.00
2017,05,29,05,27,7.00
2017,05,29,05,28,8.60
2017,05,29,05,29,9.00
2017,05,29,05,30,9.00
2017,05,29,05,31,9.80
2017,05,29,05,32,11.00
2017,05,29,05,33,11.00
2017,05,29,05,34,11.00
2017,05,29,05,35,12.00
2017,05,29,05,36,12.00
2017,05,29,05,37,12.00
2017,05,29,05,38,13.20
2017,05,29,05,39,14.00
2017,05,29,05,40,14.00
2017,05,29,05,41,14.30
2017,05,29,05,42,16.00
2017,05,29,05,43,16.00
2017,05,29,05,44,16.00
2017,05,29,05,45,16.00
2017,05,29,05,46,17.70
2017,05,29,05,47,18.00
2017,05,29,05,48,18.00
2017,05,29,05,49,18.40
2017,05,29,05,50,19.00
2017,05,29,05,51,19.00
2017,05,29,05,52,19.00
2017,05,29,05,53,19.00
2017,05,29,05,54,19.60
2017,05,29,05,55,21.00
2017,05,29,05,56,21.00
2017,05,29,05,57,21.00
2017,05,29,05,58,21.00
2017,05,29,05,59,21.40
2017,05,29,06,00,23.00
2017,05,29,06,01,23.00
2017,05,29,06,02,23.00
2017,05,29,06,03,24.60
2017,05,29,06,04,25.00
2017,05,29,06,05,25.20
2017,05,29,06,06,26.00
2017,05,29,06,07,26.00
2017,05,29,06,08,27.30
2017,05,29,06,09,36.70
2017,05,29,06,10,54.30
2017,05,29,06,11,64.50
2017,05,29,06,12,65.80
2017,05,29,06,13,75.80
2017,05,29,06,14,82.90
2017,05,29,06,15,85.60
2017,05,29,06,16,88.20
2017,05,29,06,17,90.30
2017,05,29,06,18,91.90
2017,05,29,06,19,94.20
2017,05,29,06,20,96.40
2017,05,29,06,21,97.80
2017,05,29,06,22,100.20
2017,05,29,06,23,102.60
2017,05,29,06,24,104.40
2017,05,29,06,25,106.20
2017,05,29,06,26,108.50
2017,05,29,06,27,110.80
2017,05,29,06,28,113.20
2017,05,29,06,29,114.60
2017,05,29,06,30,117.80
2017,05,29,06,31,120.60
2017,05,29,06,32,122.40
2017,05,29,06,33,124.90
2017,05,29,06,34,127.20
2017,05,29,06,35,128.60
2017,05,29,06,36,130.90
2017,05,29,06,37,133.20
2017,05,29,06,38,134.80
2017,05,29,06,39,138.70
2017,05,29,06,40,141.20
2017,05,29,06,41,142.70
2017,05,29,06,42,144.90
2017,05,29,06,43,147.30
2017,05,29,06,44,150.40
2017,05,29,06,45,153.00
2017,05,29,06,46,155.20
2017,05,29,06,47,156.70
2017,05,29,06,48,159.00
2017,05,29,06,49,161.30
2017,05,29,06,50,164.40
2017,05,29,06,51,167.10
2017,05,29,06,52,169.40
2017,05,29,06,53,171.40
2017,05,29,06,54,174.10
2017,05,29,06,55,177.30
2017,05,29,06,56,178.80
2017,05,29,06,57,183.10
2017,05,29,06,58,185.20
2017,05,29,06,59,187.80
2017,05,29,07,00,191.20
2017,05,29,07,01,192.70
2017,05,29,07,02,194.70
2017,05,29,07,03,199.10
2017,05,29,07,04,200.60
2017,05,29,07,05,202.90
2017,05,29,07,06,205.80
2017,05,29,07,07,208.50
2017,05,29,07,08,210.70
2017,05,29,07,09,214.30
2017,05,29,07,10,216.60
2017,05,29,07,11,219.40
2017,05,29,07,12,222.20
2017,05,29,07,13,224.50
2017,05,29,07,14,226.80
2017,05,29,07,15,230.40
2017,05,29,07,16,232.70
2017,05,29,07,17,235.40
2017,05,29,07,18,238.30
2017,05,29,07,19,240.60
2017,05,29,07,20,243.80
2017,05,29,07,21,246.40
2017,05,29,07,22,248.70
2017,05,29,07,23,251.50
2017,05,29,07,24,254.30
2017,05,29,07,25,256.60
2017,05,29,07,26,259.90
2017,05,29,07,27,262.50
2017,05,29,07,28,264.40
2017,05,29,07,29,267.00
2017,05,29,07,30,270.40
2017,05,29,07,31,271.80
2017,05,29,07,32,276.00
2017,05,29,07,33,278.20
2017,05,29,07,34,279.80
2017,05,29,07,35,283.20
2017,05,29,07,36,287.10
2017,05,29,07,37,289.60
2017,05,29,07,38,292.20
2017,05,29,07,39,294.90
2017,05,29,07,40,298.70
2017,05,29,07,41,301.50
2017,05,29,07,42,303.40
2017,05,29,07,43,305.70
2017,05,29,07,44,309.20
2017,05,29,07,45,311.60
2017,05,29,07,46,314.40
2017,05,29,07,47,317.10
2017,05,29,07,48,319.50
2017,05,29,07,49,322.50
2017,05,29,07,50,325.30
2017,05,29,07,51,327.60
2017,05,29,07,52,330.40
2017,05,29,07,53,333.20
2017,05,29,07,54,336.90
2017,05,29,07,55,339.00
2017,05,29,07,56,341.60
2017,05,29,07,57,345.30
2017,05,29,07,58,347.00
2017,05,29,07,59,349.30
2017,05,29,08,00,352.30
2017,05,29,08,01,355.00
2017,05,29,08,02,357.40
2017,05,29,08,03,360.00
2017,05,29,08,04,362.90
2017,05,29,08,05,366.00
2017,05,29,08,06,368.60
2017,05,29,08,07,370.90
2017,05,29,08,08,373.80
2017,05,29,08,09,376.80
2017,05,29,08,10,379.60
2017,05,29,08,11,382.30
2017,05,29,08,12,386.20
2017,05,29,08,13,388.40
2017,05,29,08,14,392.00
2017,05,29,08,15,393.40
2017,05,29,08,16,396.50
2017,05,29,08,17,398.40
2017,05,29,08,18,402.40
2017,05,29,08,19,404.50
2017,05,29,08,20,408.50
2017,05,29,08,21,410.40
2017,05,29,08,22,412.10
2017,05,29,08,23,415.70
2017,05,29,08,24,417.90
2017,05,29,08,25,422.20
2017,05,29,08,26,424.30
2017,05,29,08,27,425.90
2017,05,29,08,28,429.30
2017,05,29,08,29,431.70
2017,05,29,08,30,435.40
2017,05,29,08,31,438.10
2017,05,29,08,32,440.30
2017,05,29,08,33,443.90
2017,05,29,08,34,445.60
2017,05,29,08,35,448.90
2017,05,29,08,36,453.60
2017,05,29,08,37,455.30
2017,05,29,08,38,457.60
2017,05,29,08,39,460.50
2017,05,29,08,40,464.50
2017,05,29,08,41,467.50
2017,05,29,08,42,469.10
2017,05,29,08,43,473.00
2017,05,29,08,44,473.90
2017,05,29,08,45,477.00
2017,05,29,08,46,479.30
2017,05,29,08,47,482.20
2017,05,29,08,48,485.10
2017,05,29,08,49,487.60
2017,05,29,08,50,490.80
2017,05,29,08,51,494.00
2017,05,29,08,52,496.70
2017,05,29,08,53,498.60
2017,05,29,08,54,503.60
2017,05,29,08,55,522.20
2017,05,29,08,56,508.80
2017,05,29,08,57,510.00
2017,05,29,08,58,512.00
2017,05,29,08,59,513.00
2017,05,29,09,00,517.00
2017,05,29,09,01,525.00
2017,05,29,09,02,533.30
2017,05,29,09,03,536.60
2017,05,29,09,04,533.30
2017,05,29,09,05,528.70
2017,05,29,09,06,533.30
2017,05,29,09,07,536.50
2017,05,29,09,08,538.90
2017,05,29,09,09,540.00
2017,05,29,09,10,543.70
2017,05,29,09,11,545.00
2017,05,29,09,12,548.30
2017,05,29,09,13,551.20
2017,05,29,09,14,554.50
2017,05,29,09,15,556.20
2017,05,29,09,16,558.40
2017,05,29,09,17,560.80
2017,05,29,09,18,563.60
2017,05,29,09,19,567.40
2017,05,29,09,20,570.50
2017,05,29,09,21,572.20
2017,05,29,09,22,574.50
2017,05,29,09,23,577.70
2017,05,29,09,24,580.50
2017,05,29,09,25,583.10
2017,05,29,09,26,586.00
2017,05,29,09,27,588.30
2017,05,29,09,28,590.60
2017,05,29,09,29,592.10
2017,05,29,09,30,594.50
2017,05,29,09,31,597.10
2017,05,29,09,32,601.00
2017,05,29,09,33,603.00
2017,05,29,09,34,605.40
2017,05,29,09,35,606.20
2017,05,29,09,36,610.50
2017,05,29,09,37,612.40
2017,05,29,09,38,615.10
2017,05,29,09,39,617.00
2017,05,29,09,40,620.20
2017,05,29,09,41,622.00
2017,05,29,09,42,623.00
2017,05,29,09,43,626.80
2017,05,29,09,44,628.50
2017,05,29,09,45,631.80
2017,05,29,09,46,634.70
2017,05,29,09,47,637.80
2017,05,29,09,48,638.50
2017,05,29,09,49,641.20
2017,05,29,09,50,644.10
2017,05,29,09,51,646.40
2017,05,29,09,52,649.70
2017,05,29,09,53,652.30
2017,05,29,09,54,654.60
2017,05,29,09,55,657.30
2017,05,29,09,56,660.20
2017,05,29,09,57,662.50
2017,05,29,09,58,663.20
2017,05,29,09,59,666.00
2017,05,29,10,00,666.60
2017,05,29,10,01,669.40
2017,05,29,10,02,672.30
2017,05,29,10,03,674.50
2017,05,29,10,04,676.90
2017,05,29,10,05,679.80
2017,05,29,10,06,682.70
2017,05,29,10,07,684.00
2017,05,29,10,08,685.30
2017,05,29,10,09,686.80
2017,05,29,10,10,690.70
2017,05,29,10,11,693.20
2017,05,29,10,12,694.70
2017,05,29,10,13,696.90
2017,05,29,10,14,699.30
2017,05,29,10,15,700.80
2017,05,29,10,16,703.20
2017,05,29,10,17,706.60
2017,05,29,10,18,706.00
2017,05,29,10,19,708.00
2017,05,29,10,20,710.70
2017,05,29,10,21,713.60
2017,05,29,10,22,715.00
2017,05,29,10,23,716.10
2017,05,29,10,24,719.80
2017,05,29,10,25,722.70
2017,05,29,10,26,724.00
2017,05,29,10,27,727.40
2017,05,29,10,28,728.10
2017,05,29,10,29,729.50
2017,05,29,10,30,731.00
2017,05,29,10,31,733.40
2017,05,29,10,32,735.00
2017,05,29,10,33,737.50
2017,05,29,10,34,740.60
2017,05,29,10,35,744.30
2017,05,29,10,36,744.50
2017,05,29,10,37,746.90
2017,05,29,10,38,749.00
2017,05,29,10,39,749.10
2017,05,29,10,40,752.60
2017,05,29,10,41,755.40
2017,05,29,10,42,754.90
2017,05,29,10,43,757.20
2017,05,29,10,44,758.80
2017,05,29,10,45,760.90
2017,05,29,10,46,763.00
2017,05,29,10,47,764.00
2017,05,29,10,48,766.00
2017,05,29,10,49,767.20
2017,05,29,10,50,769.50
2017,05,29,10,51,771.80
2017,05,29,10,52,772.80
2017,05,29,10,53,773.20
2017,05,29,10,54,775.00
2017,05,29,10,55,776.30
2017,05,29,10,56,779.40
2017,05,29,10,57,783.60
2017,05,29,10,58,784.50
2017,05,29,10,59,786.00
2017,05,29,11,00,787.50
2017,05,29,11,01,789.00
2017,05,29,11,02,790.60
2017,05,29,11,03,791.20
2017,05,29,11,04,793.50
2017,05,29,11,05,795.00
2017,05,29,11,06,795.00
2017,05,29,11,07,797.10
2017,05,29,11,08,799.70
2017,05,29,11,09,800.50
2017,05,29,11,10,803.00
2017,05,29,11,11,803.80
2017,05,29,11,12,805.00
2017,05,29,11,13,806.50
2017,05,29,11,14,808.70
2017,05,29,11,15,810.00
2017,05,29,11,16,811.20
2017,05,29,11,17,814.00
2017,05,29,11,18,815.70
2017,05,29,11,19,817.00
2017,05,29,11,20,817.00
2017,05,29,11,21,819.30
2017,05,29,11,22,821.70
2017,05,29,11,23,823.00
2017,05,29,11,24,823.00
2017,05,29,11,25,823.80
2017,05,29,11,26,824.10
2017,05,29,11,27,826.60
2017,05,29,11,28,830.00
2017,05,29,11,29,830.50
2017,05,29,11,30,832.20
2017,05,29,11,31,836.80
2017,05,29,11,32,818.00
2017,05,29,11,33,841.60
2017,05,29,11,34,840.00
2017,05,29,11,35,840.00
2017,05,29,11,36,840.00
2017,05,29,11,37,840.00
2017,05,29,11,38,840.20
2017,05,29,11,39,842.50
2017,05,29,11,40,843.20
2017,05,29,11,41,844.10
2017,05,29,11,42,846.00
2017,05,29,11,43,848.50
2017,05,29,11,44,850.90
2017,05,29,11,45,851.00
2017,05,29,11,46,852.20
2017,05,29,11,47,855.00
2017,05,29,11,48,856.00
2017,05,29,11,49,848.00
2017,05,29,11,50,847.00
2017,05,29,11,51,848.80
2017,05,29,11,52,854.80
2017,05,29,11,53,858.40
2017,05,29,11,54,860.00
2017,05,29,11,55,860.00
2017,05,29,11,56,861.00
2017,05,29,11,57,861.60
2017,05,29,11,58,864.60
2017,05,29,11,59,865.90
2017,05,29,12,00,862.20
2017,05,29,12,01,867.00
2017,05,29,12,02,862.30
2017,05,29,12,03,870.00
2017,05,29,12,04,870.00
2017,05,29,12,05,871.20
2017,05,29,12,06,873.60
2017,05,29,12,07,874.00
2017,05,29,12,08,875.40
2017,05,29,12,09,879.70
2017,05,29,12,10,879.00
2017,05,29,12,11,881.00
2017,05,29,12,12,881.00
2017,05,29,12,13,882.10
2017,05,29,12,14,884.00
2017,05,29,12,15,884.70
2017,05,29,12,16,886.00
2017,05,29,12,17,884.70
2017,05,29,12,18,887.20
2017,05,29,12,19,887.90
2017,05,29,12,20,886.50
2017,05,29,12,21,888.40
2017,05,29,12,22,890.10
2017,05,29,12,23,889.70
2017,05,29,12,24,889.00
2017,05,29,12,25,889.00
2017,05,29,12,26,889.50
2017,05,29,12,27,891.80
2017,05,29,12,28,893.00
2017,05,29,12,29,893.00
2017,05,29,12,30,895.50
2017,05,29,12,31,896.00
2017,05,29,12,32,896.00
2017,05,29,12,33,896.80
2017,05,29,12,34,896.80
2017,05,29,12,35,897.40
2017,05,29,12,36,896.30
2017,05,29,12,37,898.00
2017,05,29,12,38,898.00
2017,05,29,12,39,897.10
2017,05,29,12,40,897.20
2017,05,29,12,41,898.00
2017,05,29,12,42,901.60
2017,05,29,12,43,901.70
2017,05,29,12,44,899.40
2017,05,29,12,45,898.00
2017,05,29,12,46,899.20
2017,05,29,12,47,900.00
2017,05,29,12,48,900.00
2017,05,29,12,49,902.00
2017,05,29,12,50,902.70
2017,05,29,12,51,904.50
2017,05,29,12,52,905.00
2017,05,29,12,53,905.00
2017,05,29,12,54,905.00
2017,05,29,12,55,904.80
2017,05,29,12,56,904.40
2017,05,29,12,57,905.00
2017,05,29,12,58,905.00
2017,05,29,12,59,905.00
2017,05,29,13,00,905.20
2017,05,29,13,01,907.00
2017,05,29,13,02,907.00
2017,05,29,13,03,909.20
2017,05,29,13,04,915.80
2017,05,29,13,05,918.00
2017,05,29,13,06,838.10
2017,05,29,13,07,916.50
2017,05,29,13,08,911.60
2017,05,29,13,09,911.00
2017,05,29,13,10,909.60
2017,05,29,13,11,910.60
2017,05,29,13,12,909.10
2017,05,29,13,13,909.60
2017,05,29,13,14,909.20
2017,05,29,13,15,905.30
2017,05,29,13,16,904.70
2017,05,29,13,17,871.00
2017,05,29,13,18,902.50
2017,05,29,13,19,904.70
2017,05,29,13,20,905.30
2017,05,29,13,21,908.20
2017,05,29,13,22,911.20
2017,05,29,13,23,907.80
2017,05,29,13,24,907.40
2017,05,29,13,25,907.70
2017,05,29,13,26,905.00
2017,05,29,13,27,908.60
2017,05,29,13,28,906.30
2017,05,29,13,29,906.70
2017,05,29,13,30,907.80
2017,05,29,13,31,908.90
2017,05,29,13,32,906.90
2017,05,29,13,33,907.70
2017,05,29,13,34,908.60
2017,05,29,13,35,905.60
2017,05,29,13,36,906.60
2017,05,29,13,37,905.00
2017,05,29,13,38,903.50
2017,05,29,13,39,902.00
2017,05,29,13,40,903.60
2017,05,29,13,41,904.90
2017,05,29,13,42,905.00
2017,05,29,13,43,904.60
2017,05,29,13,44,904.50
2017,05,29,13,45,905.00
2017,05,29,13,46,902.50
2017,05,29,13,47,903.90
2017,05,29,13,48,903.50
2017,05,29,13,49,901.20
2017,05,29,13,50,900.00
2017,05,29,13,51,901.40
2017,05,29,13,52,902.00
2017,05,29,13,53,899.70
2017,05,29,13,54,896.60
2017,05,29,13,55,898.00
2017,05,29,13,56,898.00
2017,05,29,13,57,898.00
2017,05,29,13,58,896.20
2017,05,29,13,59,895.80
2017,05,29,14,00,894.40
2017,05,29,14,01,893.90
2017,05,29,14,02,895.60
2017,05,29,14,03,899.00
2017,05,29,14,04,896.40
2017,05,29,14,05,894.70
2017,05,29,14,06,893.00
2017,05,29,14,07,892.10
2017,05,29,14,08,892.20
2017,05,29,14,09,891.50
2017,05,29,14,10,892.80
2017,05,29,14,11,892.60
2017,05,29,14,12,890.30
2017,05,29,14,13,888.50
2017,05,29,14,14,886.80
2017,05,29,14,15,884.50
2017,05,29,14,16,882.50
2017,05,29,14,17,887.60
2017,05,29,14,18,885.30
2017,05,29,14,19,884.00
2017,05,29,14,20,884.00
2017,05,29,14,21,882.40
2017,05,29,14,22,881.90
2017,05,29,14,23,881.00
2017,05,29,14,24,881.00
2017,05,29,14,25,881.50
2017,05,29,14,26,881.30
2017,05,29,14,27,881.00
2017,05,29,14,28,881.00
2017,05,29,14,29,874.20
2017,05,29,14,30,856.80
2017,05,29,14,31,870.90
2017,05,29,14,32,838.40
2017,05,29,14,33,874.50
2017,05,29,14,34,880.80
2017,05,29,14,35,879.00
2017,05,29,14,36,878.20
2017,05,29,14,37,878.10
2017,05,29,14,38,879.00
2017,05,29,14,39,883.20
2017,05,29,14,40,884.00
2017,05,29,14,41,881.30
2017,05,29,14,42,874.50
2017,05,29,14,43,872.80
2017,05,29,14,44,870.50
2017,05,29,14,45,870.00
2017,05,29,14,46,867.80
2017,05,29,14,47,867.00
2017,05,29,14,48,866.10
2017,05,29,14,49,866.80
2017,05,29,14,50,865.80
2017,05,29,14,51,865.00
2017,05,29,14,52,860.40
2017,05,29,14,53,857.30
2017,05,29,14,54,856.90
2017,05,29,14,55,856.80
2017,05,29,14,56,854.50
2017,05,29,14,57,853.10
2017,05,29,14,58,852.60
2017,05,29,14,59,851.00
2017,05,29,15,00,850.00
2017,05,29,15,01,847.70
2017,05,29,15,02,826.50
2017,05,29,15,03,843.00
2017,05,29,15,04,845.50
2017,05,29,15,05,843.30
2017,05,29,15,06,843.00
2017,05,29,15,07,841.40
2017,05,29,15,08,844.80
2017,05,29,15,09,846.10
2017,05,29,15,10,846.70
2017,05,29,15,11,846.40
2017,05,29,15,12,847.00
2017,05,29,15,13,844.90
2017,05,29,15,14,824.50
2017,05,29,15,15,808.40
2017,05,29,15,16,800.10
2017,05,29,15,17,803.50
2017,05,29,15,18,797.10
2017,05,29,15,19,777.60
2017,05,29,15,20,772.20
2017,05,29,15,21,789.30
2017,05,29,15,22,831.00
2017,05,29,15,23,831.00
2017,05,29,15,24,834.60
2017,05,29,15,25,829.30
2017,05,29,15,26,814.10
2017,05,29,15,27,746.60
2017,05,29,15,28,733.70
2017,05,29,15,29,744.90
2017,05,29,15,30,778.10
2017,05,29,15,31,820.80
2017,05,29,15,32,816.20
2017,05,29,15,33,821.40
2017,05,29,15,34,823.00
2017,05,29,15,35,823.00
2017,05,29,15,36,823.00
2017,05,29,15,37,823.00
2017,05,29,15,38,814.70
2017,05,29,15,39,810.50
2017,05,29,15,40,804.00
2017,05,29,15,41,802.50
2017,05,29,15,42,797.90
2017,05,29,15,43,760.60
2017,05,29,15,44,768.70
2017,05,29,15,45,770.60
2017,05,29,15,46,788.30
2017,05,29,15,47,783.50
2017,05,29,15,48,754.50
2017,05,29,15,49,727.20
2017,05,29,15,50,720.80
2017,05,29,15,51,753.10
2017,05,29,15,52,757.80
2017,05,29,15,53,766.50
2017,05,29,15,54,708.70
2017,05,29,15,55,686.00
2017,05,29,15,56,620.00
2017,05,29,15,57,703.40
2017,05,29,15,58,730.70
2017,05,29,15,59,724.20
2017,05,29,16,00,732.20
2017,05,29,16,01,716.60
2017,05,29,16,02,706.20
2017,05,29,16,03,731.50
2017,05,29,16,04,755.30
2017,05,29,16,05,770.20
2017,05,29,16,06,771.30
2017,05,29,16,07,780.20
2017,05,29,16,08,774.00
2017,05,29,16,09,772.80
2017,05,29,16,10,757.40
2017,05,29,16,11,704.60
2017,05,29,16,12,659.70
2017,05,29,16,13,709.80
2017,05,29,16,14,741.60
2017,05,29,16,15,717.90
2017,05,29,16,16,700.20
2017,05,29,16,17,737.70
2017,05,29,16,18,752.40
2017,05,29,16,19,754.00
2017,05,29,16,20,752.00
2017,05,29,16,21,747.10
2017,05,29,16,22,736.50
2017,05,29,16,23,735.00
2017,05,29,16,24,740.60
2017,05,29,16,25,737.90
2017,05,29,16,26,732.00
2017,05,29,16,27,728.60
2017,05,29,16,28,724.70
2017,05,29,16,29,719.90
2017,05,29,16,30,717.40
2017,05,29,16,31,713.50
2017,05,29,16,32,709.20
2017,05,29,16,33,706.20
2017,05,29,16,34,702.90
2017,05,29,16,35,697.50
2017,05,29,16,36,694.30
2017,05,29,16,37,693.20
2017,05,29,16,38,689.00
2017,05,29,16,39,687.00
2017,05,29,16,40,681.80
2017,05,29,16,41,680.00
2017,05,29,16,42,675.80
2017,05,29,16,43,657.80
2017,05,29,16,44,626.70
2017,05,29,16,45,606.80
2017,05,29,16,46,624.00
2017,05,29,16,47,630.20
2017,05,29,16,48,656.00
2017,05,29,16,49,587.00
2017,05,29,16,50,587.00
2017,05,29,16,51,602.80
2017,05,29,16,52,627.20
2017,05,29,16,53,648.20
2017,05,29,16,54,647.80
2017,05,29,16,55,647.00
2017,05,29,16,56,635.90
2017,05,29,16,57,638.00
2017,05,29,16,58,639.30
2017,05,29,16,59,636.20
2017,05,29,17,00,631.20
2017,05,29,17,01,625.20
2017,05,29,17,02,621.00
2017,05,29,17,03,617.10
2017,05,29,17,04,613.00
2017,05,29,17,05,607.20